Regional Weather Roundup
Issued by NWS Huntsville, AL

Home | Current Version | Previous Version | Text Only | Print | Product List | Glossary On
Versions: 1 2 3 4 5 6 7 8 9 10 11 12 13 14 15 16 17 18 19 20 21 22 23 24 25 26 27 28 29 30 31 32 33 34 35 36 37 38 39 40 41 42 43 44 45 46 47 48 49 50
000
ASUS44 KHUN 132110
RWRHUN

WEATHER ROUNDUP FOR THE TENNESSEE VALLEY
NATIONAL WEATHER SERVICE HUNTSVILLE AL
300 PM CST SAT FEB 13 2016

ALZ001>004-132200-
NORTHWEST ALABAMA

CITY           SKY/WX    TMP DP  RH WIND       PRES   REMARKS
SHOALS AIRPORT SUNNY     38   4  24 NE8       30.47F WCI  32
SHOALS TVA RES   N/A     37 N/A N/A MISG        N/A
$$

ALZ005>007-016-132200-
NORTH CENTRAL ALABAMA

CITY           SKY/WX    TMP DP  RH WIND       PRES   REMARKS
CULLMAN AG STN   N/A     36 N/A N/A NW6         N/A  WCI  31
DECATUR AP     SUNNY     36   4  26 NW5       30.46F WCI  32
HUNTSVILLE AP  MOSUNNY   38  -1  19 NE10      30.44F WCI  31
HUN NWS/UAH      N/A     36  -2  20 N9          N/A  WCI  29
MERIDIANVILLE  SUNNY     36  -8  15 N12       30.43F WCI  27
REDSTONE ARSN  SUNNY     37   4  25 NE9       30.43F WCI  30
VINEMONT AP    FAIR      37   4  25 N8        30.43S WCI  31
$$

ALZ008>010-132200-
NORTHEAST ALABAMA

CITY           SKY/WX    TMP DP  RH WIND       PRES   REMARKS
ALBERTVILLE    SUNNY     36  14  41 NW6       30.37F WCI  31
FORT PAYNE     SUNNY     36  -4  18 N9        30.38S WCI  29
SCOTTSBORO AP  SUNNY     39   1  20 N7G17     30.41F WCI  34
SCOTTSBORO HCN   N/A     37 N/A N/A MISG        N/A
VALLEY HEAD      N/A     37 N/A N/A MISG        N/A
$$

TNZ076-096-097-132200-
SOUTHEASTERN MIDDLE TENNESSEE

CITY           SKY/WX    TMP DP  RH WIND       PRES   REMARKS
TULLAHOMA      SUNNY     30   1  29 NW9       30.42F WCI  22
WINCHESTER     SUNNY     32   3  29 N10       30.42F WCI  24
$$

...SURROUNDING SITES...

CITY           SKY/WX    TMP DP  RH WIND       PRES   REMARKS
ATLANTA        SUNNY     42   6  22 NW13G23   30.32F
ANNISTON       SUNNY     43   4  19 N10       30.37F
BIRMINGHAM     SUNNY     43   6  21 N9        30.41F
CHATTANOOGA    SUNNY     38   0  20 NW15      30.41S WCI  29
DALTON         SUNNY     36   9  32 N10       30.40S WCI  28
GADSDEN        SUNNY     41  11  29 W9        30.40F
GOLDEN TRNGL   SUNNY     46  10  23 N7        30.42
HALEYVILLE     FAIR      39   7  26 N9        30.44F WCI  33
JACKSON TN     PTSUNNY   33   5  30 N10       30.50F WCI  25
MEMPHIS        MOSUNNY   39   6  25 NE8G22    30.48F WCI  33
NASHVILLE      MOSUNNY   32   1  26 N7        30.50F WCI  26
OXFORD MS      FAIR      41   3  20 NE7       30.46F
ROME           SUNNY     42   5  21 VRB3G18   30.37F
SAVANNAH       SUNNY     36   3  25 CALM      30.48S
TUPELO         SUNNY     42   6  22 N12       30.46F
TUSCALOOSA     SUNNY     48   6  18 N9        30.42F
$$

...GULF COAST WEATHER...

CITY           SKY/WX    TMP DP  RH WIND       PRES   REMARKS
GULFPORT       SUNNY     61  28  28 MISG      30.33F
PASCAGOULA     SUNNY     61  27  27 N8        30.34F
MOBILE         MOSUNNY   59  23  25 VRB5      30.34F
GULF SHORES    CLEAR     60  26  27 N7        30.32F
PENSACOLA      SUNNY     62  15  16 N9        30.31F
DESTIN         SUNNY     62  21  20 N9        30.31F
PANAMA CITY    SUNNY     61  19  19 N8        30.29F
APPALACHICOLA  SUNNY     63  21  20 NW8       30.28F
$$




USA.gov is the U.S. government's official web portal to all federal, state and local government web resources and services.